User: anonymous   Login
Location: Unspecified
(51.0950°N, 12.9690°E)
Time: 01:08:33
(UTC+00:00)
Language:

SEEDS - Orbit

View from above orbital plane
View from above orbital plane
View from above satellite
View from above satellite

Ground track
Ground track

The orbit data is extracted from the following two-line orbital elements,

1 32791U 08021J   24114.41788966  .00017322  00000-0  13074-2 0  9996
2 32791  97.6841  85.9649 0007016 119.5328 240.6597 15.02460054868296
Epoch (UTC): 23 April 2024 10:01:45
Eccentricity: 0.0007016
inclination: 97.6841°
perigee height: 554 km
apogee height: 564 km
right ascension of ascending node: 85.9649°
argument of perigee: 119.5328°
revolutions per day: 15.02460054
mean anomaly at epoch: 240.6597°
orbit number at epoch: 86829

The dashed part of the orbit path shows where the satellite is in the earth's shadow,  

DLR